Tempur Sealy PE Ratio 2010-2022 | TPX

Current and historical p/e ratio for Tempur Sealy (TPX) from 2010 to 2022. The price to earnings ratio is calculated by taking the latest closing price and dividing it by the most recent earnings per share (EPS) number. The PE ratio is a simple way to assess whether a stock is over or under valued and is the most widely used valuation measure. Tempur Sealy PE ratio as of May 20, 2022 is 7.67.

Please refer to the Stock Price Adjustment Guide for more information on our historical prices.

Tempur Sealy PE Ratio Historical Data
Date Stock Price TTM Net EPS PE Ratio
2022-05-20 24.85 7.94
2022-03-31 27.81 $3.13 8.88
2021-12-31 46.68 $3.06 15.25
2021-09-30 45.97 $2.85 16.13
2021-06-30 38.74 $2.55 15.18
2021-03-31 36.07 $1.97 18.29
2020-12-31 26.58 $1.63 16.31
2020-09-30 21.95 $1.17 18.76
2020-06-30 17.71 $0.93 19.15
2020-03-31 10.76 $1.00 10.76
2019-12-31 21.43 $0.85 25.21
2019-09-30 19.00 $0.70 27.34
2019-06-30 18.06 $0.56 32.25
2019-03-31 14.19 $0.48 29.57
2018-12-31 10.19 $0.46 22.27
2018-09-30 13.02 $0.63 20.67
2018-06-30 11.83 $0.64 18.48
2018-03-31 11.15 $0.65 17.22
2017-12-31 15.43 $0.70 22.12
2017-09-30 15.88 $0.75 21.17
2017-06-30 13.14 $0.88 14.98
2017-03-31 11.44 $0.85 13.41
2016-12-31 16.81 $0.86 19.66
2016-09-30 13.97 $0.53 26.35
2016-06-30 13.62 $0.36 37.82
2016-03-31 14.96 $0.36 41.85
2015-12-31 17.34 $0.30 58.79
2015-09-30 17.58 $0.53 33.33
2015-06-30 16.22 $0.52 31.34
2015-03-31 14.21 $0.42 33.64
2014-12-31 13.52 $0.44 30.89
2014-09-30 13.83 $0.34 40.37
2014-06-30 14.69 $0.36 41.39
2014-03-31 12.47 $0.36 34.89
2013-12-31 13.28 $0.30 44.64
2013-09-30 10.82 $0.30 35.77
2013-06-30 10.81 $0.13 81.55
2013-03-31 12.22 $0.25 48.38
2012-12-31 7.75 $0.42 18.56
2012-09-30 7.36 $0.53 13.88
2012-06-30 5.76 $0.76 7.55
2012-03-31 20.78 $0.84 24.74
2011-12-31 12.93 $0.80 16.26
2011-09-30 12.95 $0.75 17.27
2011-06-30 16.69 $0.68 24.55
2011-03-31 12.47 $0.61 20.61
2010-12-31 9.86 $0.55 18.09
2010-09-30 7.63 $0.48 16.06
2010-06-30 7.57 $0.41 18.69
2010-03-31 7.42 $0.35 21.52
2009-12-31 5.82 $0.28 20.77
Sector Industry Market Cap Revenue
Retail/Wholesale Retail - Home Furnishings $4.362B $4.931B
Tempur Sealy International, Inc. is involved in the development, manufacturing and marketing of bedding products primarily in North America and internationally. It provides mattresses, adjustable bases, pillows and other sleep and relaxation products. The company's brand portfolio includes Tempur(R), Tempur-Pedic(R), Sealy(R), Sealy Posturepedic(R), Optimum(TM) and Stearns & Foster(R). Tempur Sealy International, Inc., formerly known as Tempur-Pedic International Inc., is headquartered in Lexington, Kentucky.
Stock Name Country Market Cap PE Ratio
Fortune Brands Home & Security (FBHS) United States $8.734B 11.76
Williams-Sonoma (WSM) United States $7.574B 7.25
RH (RH) United States $5.831B 10.31
Ethan Allen Interiors (ETD) United States $0.552B 6.37
Haverty Furniture (HVT.A) $0.475B 5.63
Haverty Furniture (HVT) United States $0.454B 5.37
LL Flooring Holdings (LL) United States $0.326B 9.28
At Home Group (HOME) United States $0.000B 0.00